Location: ??????
(55.7522°N, 37.6156°E)
Time: 18:03:47
(UTC+00:00)

ASTEX 1 - Pass Details

Date: 14 June 2025
Orbit: 713 x 736 km, 92.7° (Epoch: 13 July)

Event Time Altitude Azimuth Distance (km) Brightness Sun altitude
Rises 20:11:06 0° 6° (N) 3,182 8.0 -9.2°
Reaches altitude 10° 20:13:26 10° 9° (N) 2,254 7.1 -9.3°
Maximum altitude 20:18:25 72° 94° (E) 777 3.5 -9.5°
Enters shadow 20:23:02 12° 179° (S) 2,107 5.2 -9.7°
